CHINASAT 9A (ZX 9A)

Last updated on Sept. 28, 2020, 5:45 a.m. UTC

1 42763U 17035A   20271.93766748 -.00000335  00000-0  00000-0 0  9992
2 42763   0.0260 151.8398 0001974   5.4581 288.8789  1.00270409 12715
UTC
Height (km)
Latitude
Longitude
Inclination
Orbital Period
UTC large
Height (km)
Speed (km/s)
/
Latitude / Longitude
Inclination (degrees)
Orbital Period (minutes)
Azimuth
Elevation
Range (km)
Doppler Factor
iOS Compass Heading
iOS Angle

Next 30 passes for location: Hong Kong

Rise time Rise Azimuth (degrees) Set time Set Azimuth (degrees) Duration Max altitude (degrees)

No matching passes for this satellites